Hourly Data Report for July 20, 2021

PRINCE RUPERT
BRITISH COLUMBIA
Current Station Operator: NAVCAN

54°17'10.000" N
130°26'41.000" W
35.40 m
1066482
71022
YPR

Download Data

Hourly Data (July 2021)
Hourly Data Report for July 20, 2021
TIME
LST
Temp Definition
°C
Dew Point Definition
°C
Rel Hum Definition
%
Precip. Amount Definition
mm

Wind Dir Definition
10's deg

Wind Spd Definition
km/h
Visibility Definition
km
Stn Press Definition
kPa
Hmdx Definition


Wind Chill Definition


Weather Definition


00:00 13.4 11.5 88 0.0   0 16.1 101.28     LegendNANA
01:00 12.1 11.5 96 0.0 15 5 16.1 101.25     LegendNANA
02:00 12.1 11.5 96 0.0 LegendMM 4 16.1 101.24     LegendNANA
03:00 12.2 11.7 97 0.0 16 5 16.1 101.26     LegendNANA
04:00 12.3 11.5 95 1.2 14 9 12.9 101.33     Rain
05:00 12.4 11.6 95 1.0 12 5 16.1 101.34     Rain
06:00 12.7 11.8 94 0.2 LegendMM 4 16.1 101.35     LegendNANA
07:00 13.2 12.4 95 0.0 LegendMM 4 9.7 101.38     Rain, Fog
08:00 13.5 12.8 96 0.0 16 5 16.1 101.39     LegendNANA
09:00 13.9 12.5 91 0.0 16 5 16.1 101.41     LegendNANA
10:00 14.6 12.8 89 0.0 LegendMM 5 16.1 101.43     LegendNANA
11:00 15.0 12.7 86 0.0   0 16.1 101.44     LegendNANA
12:00 15.8 12.2 79 0.0 22 9 16.1 101.47     LegendNANA
13:00 15.8 12.2 79 0.0 27 5 16.1 101.47     LegendNANA
14:00 15.3 11.5 78 0.0 19 8 16.1 101.49     LegendNANA
15:00 15.4 12.5 83 0.0 LegendMM 8 6.4 101.47     Rain, Fog
16:00 16.2 12.0 76 0.0 18 8 16.1 101.47     LegendNANA
17:00 16.2 11.8 75 0.0 20 8 16.1 101.46     LegendNANA
18:00 15.6 12.0 79 0.0 17 9 16.1 101.44     LegendNANA
19:00 15.1 12.6 85 0.0 16 8 16.1 101.44     LegendNANA
20:00 15.0 12.4 84 0.0 14 8 16.1 101.43     LegendNANA
21:00 14.6 12.5 87 0.0 14 8 16.1 101.42     LegendNANA
22:00 13.8 12.2 90 0.0 15 5 12.9 101.42     Rain
23:00 13.5 12.1 91 0.0 15 5 16.1 101.38     LegendNANA

Notes on Data Quality.

Legend

  • E = Estimated
  • M = Missing
  • NA = Not Available*
  • [empty] = Indicates an unobserved value
Date modified: